Zorg en Hoop Airport

Jump to: basic info | weather | comments

Related pages: nearby airports | nearby navaids | notams | map

Basic information (top)

Codes: ORG SMZO
Location: lon 5.811080, lat -55.190701, elev 10 ft / 3 m msl
Status: small_airport

Weather (top)

Current conditions (rec'd 2015/03/27 13:00Z):

SMZO 271300Z 01004KT 9999 SCT018 28/21 Q1016 NOSIG

Airport forecast (rec'd 2015/03/14 06:06Z):

TAF TAF SMZO 141000Z 1406/1506 06012KT 9999 FEW015TCU SCT020 TX30/1418Z TN24/1510Z 
      TEMPO 1417/1422 5000 SHRA SCT015 FEW018CB SCT025 
     FM142300 05004KT 9999 SCT035

Latest comments (top)

KLM flights from Caracas - Paramaribo - Dakar - Madrid - fra: I would like to know if this airport ... [read]

More... (top)

See also NOTAMs and nearby airports and navaids, or visit the Zorg en Hoop Airport page at the main OurAirports website..